TimeCST,TemperatureF,Dew PointF,Humidity,Sea Level PressureIn,VisibilityMPH,Wind Direction,Wind SpeedMPH,Gust SpeedMPH,PrecipitationIn,Events,Conditions,WindDirDegrees,DateUTC
12:15 AM,66.2,60.8,83,29.84,10.0,SSE,16.1,24.2,N/A,,Mostly Cloudy,160,2013-01-29 06:15:00
12:35 AM,66.2,60.8,83,29.83,10.0,SSE,15.0,21.9,N/A,,Overcast,160,2013-01-29 06:35:00
12:55 AM,66.2,60.8,83,29.82,10.0,SSE,13.8,19.6,N/A,,Overcast,160,2013-01-29 06:55:00
1:15 AM,64.4,60.8,88,29.81,10.0,SSE,13.8,-,N/A,,Overcast,150,2013-01-29 07:15:00
1:35 AM,64.4,60.8,88,29.81,10.0,SSE,13.8,-,N/A,,Overcast,160,2013-01-29 07:35:00
1:55 AM,64.4,60.8,88,29.80,10.0,SSE,11.5,-,N/A,,Overcast,160,2013-01-29 07:55:00
2:15 AM,64.4,60.8,88,29.79,10.0,SSE,11.5,16.1,N/A,,Overcast,150,2013-01-29 08:15:00
2:35 AM,64.4,60.8,88,29.79,10.0,SSE,15.0,18.4,N/A,,Overcast,160,2013-01-29 08:35:00
2:55 AM,64.4,62.6,94,29.78,10.0,SSE,17.3,20.7,N/A,,Overcast,160,2013-01-29 08:55:00
3:15 AM,64.4,60.8,88,29.77,10.0,SSE,15.0,20.7,N/A,,Overcast,160,2013-01-29 09:15:00
3:35 AM,64.4,60.8,88,29.76,10.0,SE,12.7,19.6,N/A,,Overcast,140,2013-01-29 09:35:00
3:55 AM,64.4,62.6,94,29.75,10.0,SSE,12.7,-,N/A,,Overcast,150,2013-01-29 09:55:00
4:15 AM,64.4,60.8,88,29.75,10.0,SSE,12.7,20.7,N/A,,Overcast,160,2013-01-29 10:15:00
4:35 AM,66.2,62.6,88,29.74,10.0,SSE,18.4,-,N/A,,Overcast,160,2013-01-29 10:35:00
4:55 AM,66.2,62.6,88,29.73,10.0,SSE,17.3,24.2,N/A,,Overcast,160,2013-01-29 10:55:00
5:15 AM,64.4,62.6,94,29.73,10.0,SSE,17.3,24.2,N/A,,Overcast,160,2013-01-29 11:15:00
5:35 AM,64.4,62.6,94,29.72,10.0,SSE,17.3,24.2,N/A,,Overcast,160,2013-01-29 11:35:00
5:55 AM,64.4,62.6,94,29.71,10.0,SSE,13.8,20.7,N/A,,Overcast,160,2013-01-29 11:55:00
6:15 AM,64.4,62.6,94,29.71,10.0,SSE,15.0,21.9,N/A,,Overcast,150,2013-01-29 12:15:00
6:35 AM,66.2,62.6,88,29.71,10.0,SSE,17.3,23.0,N/A,,Overcast,160,2013-01-29 12:35:00
6:55 AM,66.2,62.6,88,29.70,10.0,SSE,13.8,20.7,N/A,,Overcast,160,2013-01-29 12:55:00
7:15 AM,66.2,62.6,88,29.71,10.0,South,12.7,19.6,N/A,,Overcast,170,2013-01-29 13:15:00
7:35 AM,66.2,62.6,88,29.70,10.0,SSE,15.0,18.4,N/A,,Overcast,160,2013-01-29 13:35:00
7:55 AM,68.0,62.6,83,29.69,10.0,SSE,16.1,-,N/A,,Overcast,160,2013-01-29 13:55:00
8:15 AM,68.0,62.6,83,29.70,10.0,SSE,13.8,-,N/A,,Overcast,160,2013-01-29 14:15:00
8:35 AM,68.0,62.6,83,29.69,10.0,South,12.7,-,N/A,,Overcast,170,2013-01-29 14:35:00
8:55 AM,68.0,62.6,83,29.68,10.0,South,15.0,20.7,N/A,,Overcast,170,2013-01-29 14:55:00
9:15 AM,66.2,62.6,88,29.65,10.0,SSE,26.5,33.4,N/A,,Mostly Cloudy,160,2013-01-29 15:15:00
9:35 AM,68.0,62.6,83,29.66,10.0,South,21.9,28.8,N/A,,Mostly Cloudy,170,2013-01-29 15:35:00
9:55 AM,68.0,62.6,83,29.65,10.0,South,20.7,25.3,N/A,,Overcast,170,2013-01-29 15:55:00
10:15 AM,68.0,62.6,83,29.64,10.0,South,20.7,27.6,N/A,,Mostly Cloudy,170,2013-01-29 16:15:00
10:35 AM,68.0,62.6,83,29.62,10.0,SSE,20.7,27.6,N/A,,Scattered Clouds,160,2013-01-29 16:35:00
10:55 AM,69.8,64.4,83,29.62,10.0,South,20.7,26.5,N/A,,Mostly Cloudy,170,2013-01-29 16:55:00
11:15 AM,69.8,64.4,83,29.60,10.0,South,18.4,29.9,N/A,,Overcast,170,2013-01-29 17:15:00
11:35 AM,69.8,62.6,78,29.59,10.0,South,17.3,26.5,N/A,,Overcast,170,2013-01-29 17:35:00
11:55 AM,69.8,62.6,78,29.56,10.0,South,19.6,27.6,N/A,,Overcast,170,2013-01-29 17:55:00
12:15 PM,71.6,64.4,78,29.56,10.0,South,24.2,29.9,N/A,,Scattered Clouds,170,2013-01-29 18:15:00
12:35 PM,69.8,62.6,78,29.54,10.0,South,23.0,33.4,N/A,,Scattered Clouds,170,2013-01-29 18:35:00
12:55 PM,71.6,62.6,73,29.53,10.0,SSE,23.0,29.9,N/A,,Scattered Clouds,160,2013-01-29 18:55:00
1:15 PM,71.6,62.6,73,29.50,10.0,South,23.0,31.1,N/A,,Mostly Cloudy,180,2013-01-29 19:15:00
1:35 PM,71.6,57.2,60,29.53,10.0,West,15.0,31.1,N/A,,Overcast,260,2013-01-29 19:35:00
1:55 PM,57.2,53.6,88,29.52,2.5,WSW,12.7,28.8,0.12,Rain,Heavy Rain,240,2013-01-29 19:55:00
2:15 PM,55.4,53.6,94,29.52,1.8,South,6.9,-,0.16,Rain,Heavy Rain,170,2013-01-29 20:15:00
2:35 PM,55.4,53.6,94,29.53,3.0,SSW,5.8,-,0.38,Rain,Rain,210,2013-01-29 20:35:00
2:55 PM,55.4,53.6,94,29.55,5.0,SW,11.5,-,0.40,Rain,Light Rain,220,2013-01-29 20:55:00
3:15 PM,55.4,53.6,94,29.52,7.0,West,5.8,-,0.01,Rain,Light Rain,270,2013-01-29 21:15:00
3:35 PM,55.4,53.6,94,29.51,5.0,WNW,4.6,-,0.06,Rain,Heavy Rain,300,2013-01-29 21:35:00
3:55 PM,55.4,51.8,88,29.51,7.0,Calm,Calm,-,0.10,Rain,Rain,0,2013-01-29 21:55:00
4:15 PM,55.4,53.6,94,29.52,10.0,Calm,Calm,-,0.01,,Overcast,0,2013-01-29 22:15:00
4:35 PM,55.4,53.6,94,29.55,10.0,WSW,4.6,-,0.01,,Overcast,240,2013-01-29 22:35:00
4:55 PM,55.4,48.2,77,29.58,10.0,WNW,15.0,23.0,0.01,,Mostly Cloudy,290,2013-01-29 22:55:00
5:15 PM,55.4,42.8,63,29.58,10.0,West,16.1,23.0,N/A,,Scattered Clouds,280,2013-01-29 23:15:00
5:35 PM,55.4,41.0,58,29.58,10.0,WNW,17.3,24.2,N/A,,Scattered Clouds,290,2013-01-29 23:35:00
5:55 PM,55.4,41.0,58,29.60,10.0,WNW,13.8,18.4,N/A,,Mostly Cloudy,290,2013-01-29 23:55:00
6:15 PM,53.6,42.8,67,29.65,10.0,SW,5.8,-,N/A,Rain,Light Rain,230,2013-01-30 00:15:00
6:35 PM,51.8,44.6,76,29.61,10.0,ESE,5.8,-,N/A,,Overcast,120,2013-01-30 00:35:00
6:55 PM,50.0,42.8,76,29.60,10.0,Calm,Calm,-,N/A,,Mostly Cloudy,0,2013-01-30 00:55:00
7:15 PM,50.0,44.6,82,29.61,10.0,SE,3.5,-,N/A,,Scattered Clouds,140,2013-01-30 01:15:00
7:35 PM,50.0,44.6,82,29.61,10.0,Calm,Calm,-,N/A,,Mostly Cloudy,0,2013-01-30 01:35:00
7:55 PM,50.0,44.6,82,29.62,10.0,Calm,Calm,-,N/A,,Mostly Cloudy,0,2013-01-30 01:55:00
8:15 PM,50.0,44.6,82,29.65,10.0,South,8.1,-,N/A,,Mostly Cloudy,190,2013-01-30 02:15:00
8:35 PM,51.8,41.0,67,29.62,10.0,WSW,6.9,-,N/A,,Mostly Cloudy,240,2013-01-30 02:35:00
8:55 PM,51.8,35.6,54,29.64,10.0,WSW,13.8,19.6,N/A,,Clear,250,2013-01-30 02:55:00
9:15 PM,51.8,32.0,47,29.65,10.0,WSW,12.7,-,N/A,,Scattered Clouds,240,2013-01-30 03:15:00
9:35 PM,53.6,30.2,41,29.64,10.0,WSW,17.3,-,N/A,,Scattered Clouds,250,2013-01-30 03:35:00
9:55 PM,51.8,28.4,41,29.65,7.0,WSW,15.0,21.9,N/A,,Scattered Clouds,250,2013-01-30 03:55:00
10:15 PM,51.8,30.2,44,29.65,7.0,WSW,15.0,19.6,N/A,,Clear,250,2013-01-30 04:15:00
10:35 PM,51.8,28.4,41,29.66,10.0,WSW,15.0,19.6,N/A,,Clear,250,2013-01-30 04:35:00
10:55 PM,50.0,28.4,43,29.67,10.0,SW,9.2,-,N/A,,Clear,230,2013-01-30 04:55:00
11:15 PM,50.0,30.2,47,29.67,10.0,WSW,9.2,16.1,N/A,,Clear,240,2013-01-30 05:15:00
11:35 PM,50.0,30.2,47,29.68,10.0,WSW,11.5,-,N/A,,Clear,240,2013-01-30 05:35:00
11:55 PM,50.0,30.2,47,29.69,10.0,WSW,12.7,18.4,N/A,,Clear,240,2013-01-30 05:55:00